• Join FlightAware (Why Join?)
  • Login
  • US Flag 
06:57PM EDT


 

Airport Tracker/Info


-or-


 

Live Flight TrackerFlight Track Log ✈ TAM3095 ✈ 05-Jul-2014 ✈ SBVT / VIX - SBGL / GIG

Flight Track Log - Related Links

Times and Time Zones

All times are in EDT time to prevent confusion due to time zone crossing. See the TAM3095 flight status page for this flight to view local times or setup timezone preferences in your user account.

Time Position Orientation Groundspeed Altitude Reporting Facility
EDT Latitude Longitude Course Direction KTS MPH feet Rate Location/Type
04:34PM -20.2468 -40.2793 32° Northeast 148 170 300  Level FlightAware ADS-B (SBVT / VIX)
04:35PM -20.2313 -40.2690 32° Northeast 164 189 1,200 2,040 Climbing FlightAware ADS-B (SBVT / VIX)
04:35PM -20.2169 -40.2594 32° Northeast 191 220 1,800 1,980 Climbing FlightAware ADS-B (SBVT / VIX)
04:35PM -20.2041 -40.2502 39° Northeast 196 226 2,500 2,040 Climbing FlightAware ADS-B (SBVT / VIX)
04:36PM -20.1970 -40.2378 78° East 219 252 2,900 1,620 Climbing FlightAware ADS-B (SBVT / VIX)
04:36PM -20.1966 -40.2315 95° East 231 266 3,100 1,500 Climbing FlightAware ADS-B (SBVT / VIX)
04:36PM -20.1997 -40.2205 117° Southeast 251 289 3,300 1,740 Climbing FlightAware ADS-B (SBVT / VIX)
04:36PM -20.1972 -40.2271 136° Southeast 267 307 3,600 2,400 Climbing FlightAware ADS-B (SBVT / VIX)
04:36PM -20.2120 -40.2062 142° Southeast 270 311 3,900 3,360 Climbing FlightAware ADS-B (SBVT / VIX)
04:36PM -20.2330 -40.1954 167° South 278 320 4,900 3,360 Climbing FlightAware ADS-B (SBVT / VIX)
04:37PM -20.2526 -40.1971 197° South 284 327 5,700 3,480 Climbing FlightAware ADS-B (SBVT / VIX)
04:37PM -20.2629 -40.2031 221° Southwest 288 331 6,300 3,900 Climbing FlightAware ADS-B (SBVT / VIX)
04:37PM -20.2730 -40.2135 234° Southwest 290 334 7,000 3,240 Climbing FlightAware ADS-B (SBVT / VIX)
04:37PM -20.2792 -40.2228 242° Southwest 290 334 8,200 3,000 Climbing FlightAware ADS-B (SBVT / VIX)
04:38PM -20.3020 -40.2663 240° Southwest 296 341 9,100 2,400 Climbing FlightAware ADS-B (SBVT / VIX)
04:38PM -20.3352 -40.3184 233° Southwest 328 377 10,600 1,560 Climbing FlightAware ADS-B (SBVT / VIX)
04:39PM -20.3615 -40.3542 232° Southwest 371 427 11,100 1,620 Climbing FlightAware ADS-B (SBVT / VIX)
04:40PM -20.4023 -40.4097 232° Southwest 379 436 12,400 3,600 Climbing FlightAware ADS-B (SBVT / VIX)
04:40PM -20.4378 -40.4592 233° Southwest 341 392 15,000 3,720 Climbing FlightAware ADS-B (SBVT / VIX)
04:41PM -20.4671 -40.5001 233° Southwest 326 375 17,100 2,160 Climbing FlightAware ADS-B (SBVT / VIX)
04:41PM -20.5042 -40.5522 233° Southwest 355 409 17,600 840 Climbing FlightAware ADS-B (SBVT / VIX)
04:42PM -20.5310 -40.5897 233° Southwest 383 441 18,000 1,080 Climbing FlightAware ADS-B (SBVT / VIX)
04:43PM -20.5857 -40.6662 233° Southwest 403 464 19,000 1,860 Climbing FlightAware ADS-B (SBVT / VIX)
04:43PM -20.6186 -40.7127 233° Southwest 393 452 20,300 1,740 Climbing FlightAware ADS-B (SBVT / VIX)
04:44PM -20.6667 -40.7802 233° Southwest 410 472 21,100 1,320 Climbing FlightAware ADS-B (SBVT / VIX)
04:44PM -20.7066 -40.8339 230° Southwest 416 479 22,000 1,920 Climbing FlightAware ADS-B (SBVT / VIX)
04:45PM -20.7571 -40.8942 228° Southwest 402 463 23,500 2,280 Climbing FlightAware ADS-B (SBVT / VIX)
04:46PM -20.8148 -40.9631 228° Southwest 397 457 25,400 2,040 Climbing FlightAware ADS-B (SBVT / VIX)
04:48PM -20.9686 -41.1479 228° Southwest 374 430 30,000 1,500 Climbing FlightAware ADS-B (SBRJ / SDU)
04:49PM -21.0153 -41.2037 228° Southwest 400 460 30,000  Level FlightAware ADS-B (SBRJ / SDU)
04:49PM -21.0671 -41.2660 229° Southwest 409 471 30,000  Level FlightAware ADS-B (SBVT / VIX)
04:50PM -21.1177 -41.3271 229° Southwest 408 470 30,000  Level FlightAware ADS-B (SBRJ / SDU)
04:51PM -21.1675 -41.3872 229° Southwest 407 468 30,000  Level FlightAware ADS-B (SBRJ / SDU)
04:51PM -21.2130 -41.4420 229° Southwest 408 470 30,000  Level FlightAware ADS-B (SBRJ / SDU)
04:52PM -21.2635 -41.5029 229° Southwest 408 470 30,000  Level FlightAware ADS-B (SBRJ / SDU)
04:53PM -21.3137 -41.5637 229° Southwest 408 470 30,000  Level FlightAware ADS-B (SBRJ / SDU)
04:53PM -21.3727 -41.6351 229° Southwest 408 470 30,000  Level FlightAware ADS-B (SBPI / QPE)
04:53PM -21.3739 -41.6366 229° Southwest 403 464 30,000  Level FlightAware ADS-B (SBGL / GIG)
04:54PM -21.4097 -41.6799 229° Southwest 408 470 30,000  Level FlightAware ADS-B (SBPI / QPE)
04:54PM -21.4240 -41.6974 229° Southwest 403 464 30,000  Level FlightAware ADS-B (SBGL / GIG)
04:54PM -21.4472 -41.7255 229° Southwest 408 470 30,000  Level FlightAware ADS-B (SBPI / QPE)
04:55PM -21.4748 -41.7590 230° Southwest 404 465 30,000  Level FlightAware ADS-B (SBGL / GIG)
04:55PM -21.4842 -41.7704 229° Southwest 408 470 30,000  Level FlightAware ADS-B (SBPI / QPE)
04:55PM -21.5207 -41.8147 229° Southwest 408 470 30,000  Level FlightAware ADS-B (SBPI / QPE)
04:55PM -21.5247 -41.8196 230° Southwest 404 465 30,000  Level FlightAware ADS-B (SBGL / GIG)
04:56PM -21.5595 -41.8620 229° Southwest 408 470 30,000  Level FlightAware ADS-B (SBPI / QPE)
04:56PM -21.5707 -41.8756 230° Southwest 404 465 30,000  Level FlightAware ADS-B (SBGL / GIG)
04:56PM -21.5971 -41.9077 229° Southwest 409 471 30,000  Level FlightAware ADS-B (SBPI / QPE)
04:57PM -21.6174 -41.9324 229° Southwest 410 472 30,000  Level FlightAware ADS-B (SBRJ / SDU)
04:57PM -21.6080 -41.9211 229° Southwest 409 471 30,000  Level FlightAware ADS-B (SBPI / QPE)
04:57PM -21.6730 -42.0002 229° Southwest 409 471 30,000  Level FlightAware ADS-B (SBPI / QPE)
04:57PM -21.6770 -42.0051 230° Southwest 404 465 30,000  Level FlightAware ADS-B (SBGL / GIG)
04:58PM -21.7097 -42.0451 229° Southwest 410 472 30,000  Level FlightAware ADS-B (SBPI / QPE)
04:58PM -21.7261 -42.0652 230° Southwest 404 465 30,000  Level FlightAware ADS-B (SBGL / GIG)
04:58PM -21.7483 -42.0923 229° Southwest 409 471 30,000  Level FlightAware ADS-B (SBPI / QPE)
04:59PM -21.7680 -42.1162 229° Southwest 409 471 30,000  Level FlightAware ADS-B (SBRJ / SDU)
04:59PM -21.7845 -42.1364 229° Southwest 408 470 30,000  Level FlightAware ADS-B (SBPI / QPE)
04:59PM -21.8235 -42.1840 229° Southwest 408 470 30,000  Level FlightAware ADS-B (SBPI / QPE)
04:59PM -21.8260 -42.1871 229° Southwest 403 464 30,000  Level FlightAware ADS-B (SBGL / GIG)
05:00PM -21.8496 -42.2097 216° Southwest 407 468 30,000  Level FlightAware ADS-B (SBPI / QPE)
05:00PM -21.8537 -42.2126 213° Southwest 407 468 30,000  Level FlightAware ADS-B (SBGL / GIG)
05:00PM -21.9176 -42.2508 210° Southwest 406 467 30,000  Level FlightAware ADS-B (SBPI / QPE)
05:00PM -21.9211 -42.2530 209° Southwest 407 468 30,000  Level FlightAware ADS-B (SBGL / GIG)
05:01PM -21.9659 -42.2801 210° Southwest 407 468 30,000  Level FlightAware ADS-B (SBPI / QPE)
05:01PM -21.9871 -42.2930 210° Southwest 407 468 30,000  Level FlightAware ADS-B (SBGL / GIG)
05:01PM -22.0138 -42.3093 210° Southwest 407 468 30,000 -180 Level FlightAware ADS-B (SBPI / QPE)
05:02PM -22.0521 -42.3326 209° Southwest 409 471 29,900 -840 Descending FlightAware ADS-B (SBGL / GIG)
05:02PM -22.0735 -42.3467 215° Southwest 411 473 29,500 -2,040 Descending FlightAware ADS-B (SBPI / QPE)
05:02PM -22.0841 -42.3563 222° Southwest 412 474 29,200 -2,040 Descending FlightAware ADS-B (SBGL / GIG)
05:02PM -22.0878 -42.3602 226° Southwest 410 472 29,200 -1,620 Level FlightAware ADS-B (SBPI / QPE)
05:02PM -22.1065 -42.3874 241° Southwest 403 464 28,700 -1,800 Descending FlightAware ADS-B (SBGL / GIG)
05:02PM -22.1082 -42.3908 243° Southwest 407 468 28,600 -2,340 Descending FlightAware ADS-B (SBPI / QPE)
05:03PM -22.1197 -42.4259 256° West 409 471 27,900 -2,400 Descending FlightAware ADS-B (SBGL / GIG)
05:03PM -22.1208 -42.4309 257° West 409 471 27,800 -2,280 Descending FlightAware ADS-B (SBPI / QPE)
05:03PM -22.1346 -42.4902 256° West 405 466 26,700 -2,220 Descending FlightAware ADS-B (SBPI / QPE)
05:03PM -22.1383 -42.5054 255° West 405 466 26,400 -2,340 Descending FlightAware ADS-B (SBGL / GIG)
05:04PM -22.1490 -42.5494 256° West 402 463 25,500 -2,340 Descending FlightAware ADS-B (SBPI / QPE)
05:04PM -22.1569 -42.5816 255° West 401 461 24,900 -2,100 Descending FlightAware ADS-B (SBGL / GIG)
05:04PM -22.1628 -42.6061 256° West 398 458 24,500 -780 Descending FlightAware ADS-B (SBPI / QPE)
05:05PM -22.1645 -42.6130 255° West 399 459 24,500 -2,220 Level FlightAware ADS-B (SBJR / RIO)
05:05PM -22.1767 -42.6635 256° West 395 455 23,400 -2,580 Descending FlightAware ADS-B (SBPI / QPE)
05:05PM -22.1823 -42.6866 256° West 395 455 23,000 -2,220 Descending FlightAware ADS-B (SBRJ / SDU)
05:05PM -22.1906 -42.7215 256° West 392 451 22,300 -3,000 Descending FlightAware ADS-B (SBPI / QPE)
05:06PM -22.2030 -42.7734 256° West 388 447 21,300 -2,040 Descending FlightAware ADS-B (SBGL / GIG)
05:06PM -22.2037 -42.7762 256° West 388 447 21,300 -1,380 Level FlightAware ADS-B (SBPI / QPE)
05:06PM -22.2077 -42.7929 255° West 385 443 20,600 -2,040 Descending FlightAware ADS-B (SBJR / RIO)
05:06PM -22.2170 -42.8321 256° West 382 440 20,300 -2,340 Descending FlightAware ADS-B (SBPI / QPE)
05:07PM -22.2300 -42.8867 256° West 372 428 19,400 -1,200 Descending FlightAware ADS-B (SBPI / QPE)
05:07PM -22.2264 -42.8715 256° West 376 433 19,600 -1,620 Climbing FlightAware ADS-B (SBRJ / SDU)
05:07PM -22.2428 -42.9401 256° West 359 413 18,600 -2,280 Descending FlightAware ADS-B (SBPI / QPE)
05:07PM -22.2459 -42.9530 257° West 354 407 18,400 -1,620 Descending FlightAware ADS-B (SBGL / GIG)
05:08PM -22.2552 -42.9924 256° West 350 403 17,800 -1,500 Descending FlightAware ADS-B (SBPI / QPE)
05:08PM -22.2623 -43.0221 257° West 355 409 17,400 -1,620 Descending FlightAware ADS-B (SBGL / GIG)
05:08PM -22.2676 -43.0437 256° West 359 413 17,000 -1,500 Descending FlightAware ADS-B (SBPI / QPE)
05:09PM -22.2779 -43.0867 257° West 354 407 16,500 -1,020 Descending FlightAware ADS-B (SBGL / GIG)
05:09PM -22.2792 -43.0924 256° West 353 406 16,500 -420 Level FlightAware ADS-B (SBPI / QPE)
05:09PM -22.2859 -43.1207 255° West 343 395 16,300 -840 Descending FlightAware ADS-B (SBJR / RIO)
05:09PM -22.2913 -43.1439 257° West 332 382 16,100 -960 Descending FlightAware ADS-B (SBPI / QPE)
05:10PM -22.3023 -43.1913 256° West 312 359 15,800 -360 Descending FlightAware ADS-B (SBPI / QPE)
05:10PM -22.2996 -43.1800 256° West 317 365 15,900 -1,200 Climbing FlightAware ADS-B (SBRJ / SDU)
05:10PM -22.3131 -43.2369 256° West 306 352 15,200 -1,500 Descending FlightAware ADS-B (SBPI / QPE)
05:10PM -22.3149 -43.2445 257° West 304 350 15,100 -600 Descending FlightAware ADS-B (SBGL / GIG)
05:11PM -22.3234 -43.2804 256° West 302 348 14,900 -360 Descending FlightAware ADS-B (SBPI / QPE)
05:11PM -22.3231 -43.2790 255° West 302 348 14,900 -1,620 Level FlightAware ADS-B (SBJR / RIO)
05:11PM -22.3334 -43.3231 256° West 301 346 14,100 -1,440 Descending FlightAware ADS-B (SBPI / QPE)
05:12PM -22.3339 -43.3249 256° West 301 346 14,100 -1,080 Level FlightAware ADS-B (SBRJ / SDU)
05:12PM -22.3421 -43.3596 256° West 300 345 13,600 -1,440 Descending FlightAware ADS-B (SBPI / QPE)
05:12PM -22.3499 -43.3929 257° West 287 330 13,300 -780 Descending FlightAware ADS-B (SBGL / GIG)
05:12PM -22.3539 -43.4099 256° West 281 323 13,200 -240 Descending FlightAware ADS-B (SBPI / QPE)
05:13PM -22.3561 -43.4192 255° West 279 321 13,200 -840 Level FlightAware ADS-B (SBJR / RIO)
05:13PM -22.3631 -43.4492 256° West 272 313 12,800 -1,680 Descending FlightAware ADS-B (SBPI / QPE)
05:13PM -22.3701 -43.4741 244° Southwest 270 311 12,400 -1,200 Descending FlightAware ADS-B (SBGL / GIG)
05:13PM -22.3711 -43.4758 241° Southwest 271 312 12,400 -1,140 Level FlightAware ADS-B (SBPI / QPE)
05:13PM -22.3788 -43.4858 223° Southwest 268 308 12,200 -1,380 Descending FlightAware ADS-B (SBPI / QPE)
05:13PM -22.3873 -43.4916 208° Southwest 257 296 12,000 -1,200 Descending FlightAware ADS-B (SBGL / GIG)
05:13PM -22.3890 -43.4924 206° Southwest 264 304 12,000  Level FlightAware ADS-B (SBPI / QPE)
05:14PM -22.3863 -43.4911 209° Southwest 264 304 12,000 -1,620 Level FlightAware ADS-B (SBJR / RIO)
05:14PM -22.4242 -43.5066 201° Southwest 260 299 11,200 -2,040 Descending FlightAware ADS-B (SBPI / QPE)
05:14PM -22.4552 -43.5192 201° Southwest 259 298 10,400 -1,620 Descending FlightAware ADS-B (SBGL / GIG)
05:14PM -22.4568 -43.5199 202° Southwest 259 298 10,400 -2,160 Level FlightAware ADS-B (SBPI / QPE)
05:15PM -22.4741 -43.5271 202° Southwest 263 303 9,800 -1,440 Descending FlightAware ADS-B (SBPI / QPE)
05:15PM -22.4756 -43.5278 201° Southwest 263 303 9,800 -1,320 Level FlightAware ADS-B (SBRJ / SDU)
05:15PM -22.4902 -43.5340 202° Southwest 261 300 9,500 -1,800 Descending FlightAware ADS-B (SBPI / QPE)
05:15PM -22.5076 -43.5415 202° Southwest 260 299 9,200 -1,020 Descending FlightAware ADS-B (SBPI / QPE)
05:15PM -22.5248 -43.5493 202° Southwest 260 299 9,000 -600 Descending FlightAware ADS-B (SBPI / QPE)
05:16PM -22.5196 -43.5469 203° Southwest 253 291 9,000 -1,200 Level FlightAware ADS-B (SBRJ / SDU)
05:16PM -22.5391 -43.5559 204° Southwest 245 282 8,700 -900 Descending FlightAware ADS-B (SBPI / QPE)
05:16PM -22.5405 -43.5565 203° Southwest 245 282 8,700 -1,620 Level FlightAware ADS-B (SBRJ / SDU)
05:16PM -22.5552 -43.5633 204° Southwest 245 282 8,300 -1,500 Descending FlightAware ADS-B (SBPI / QPE)
05:16PM -22.5622 -43.5665 203° Southwest 245 282 8,200 -1,800 Descending FlightAware ADS-B (SBRJ / SDU)
05:16PM -22.5768 -43.5730 201° Southwest 246 283 7,700 -3,240 Descending FlightAware ADS-B (SBGL / GIG)
05:16PM -22.5870 -43.5774 202° Southwest 245 282 7,400 -420 Descending FlightAware ADS-B (SBPI / QPE)
05:17PM -22.5840 -43.5761 202° Southwest 245 282 7,600 -840 Climbing FlightAware ADS-B (SBRJ / SDU)
05:17PM -22.6034 -43.5840 201° Southwest 242 278 7,200 -1,320 Descending FlightAware ADS-B (SBPI / QPE)
05:17PM -22.6001 -43.5827 201° Southwest 246 283 7,200 -1,500 Level FlightAware ADS-B (SBRJ / SDU)
05:17PM -22.6199 -43.5873 179° South 238 274 6,800 -2,760 Descending FlightAware ADS-B (SBPI / QPE)
05:17PM -22.6252 -43.5865 169° South 236 272 6,700 -900 Descending FlightAware ADS-B (SBPI / QPE)
05:17PM -22.6275 -43.5858 165° South 235 270 6,700 660 Level FlightAware ADS-B (SBGL / GIG)
05:17PM -22.6221 -43.5871 179° South 238 274 6,800 -540 Climbing FlightAware ADS-B (SBRJ / SDU)
05:17PM -22.6295 -43.5850 160° South 235 270 6,600 -3,000 Descending FlightAware ADS-B (SBJR / RIO)
05:17PM -22.6410 -43.5758 131° Southeast 224 258 6,400 -1,740 Descending FlightAware ADS-B (SBPI / QPE)
05:17PM -22.6435 -43.5720 121° Southeast 218 251 6,400 -900 Level FlightAware ADS-B (SBGL / GIG)
05:17PM -22.6448 -43.5691 116° Southeast 220 253 6,300  Descending FlightAware ADS-B (SBPI / QPE)
05:18PM -22.6416 -43.5750 130° Southeast 225 259 6,400 -600 Climbing FlightAware ADS-B (SBRJ / SDU)
05:18PM -22.6473 -43.5595 100° East 214 246 6,200 -1,200 Descending FlightAware ADS-B (SBPI / QPE)
05:18PM -22.6493 -43.5438 98° East 201 231 6,000 -1,680 Descending FlightAware ADS-B (SBPI / QPE)
05:18PM -22.6515 -43.5285 99° East 208 239 5,400 -1,200 Descending FlightAware ADS-B (SBPI / QPE)
05:18PM -22.6505 -43.5351 98° East 202 232 5,600 -1,200 Climbing FlightAware ADS-B (SBRJ / SDU)
05:18PM -22.6538 -43.5140 102° East 209 241 5,100 -2,400 Descending FlightAware ADS-B (SBPI / QPE)
05:18PM -22.6557 -43.5078 110° East 205 236 5,000 -420 Descending FlightAware ADS-B (SBPI / QPE)
05:19PM -22.6562 -43.5064 110° East 206 237 5,000 -780 Level FlightAware ADS-B (SBJR / RIO)
05:19PM -22.6617 -43.4942 118° Southeast 200 230 4,800 -2,280 Descending FlightAware ADS-B (SBPI / QPE)
05:19PM -22.6630 -43.4917 120° Southeast 199 229 4,700 -900 Descending FlightAware ADS-B (SBGL / GIG)
05:19PM -22.6684 -43.4820 122° Southeast 195 224 4,600 -900 Descending FlightAware ADS-B (SBPI / QPE)
05:19PM -22.6728 -43.4745 121° Southeast 188 216 4,400 -1,200 Descending FlightAware ADS-B (SBGL / GIG)
05:19PM -22.6749 -43.4713 124° Southeast 190 219 4,300 -1,200 Descending FlightAware ADS-B (SBPI / QPE)
05:19PM -22.6781 -43.4663 124° Southeast 184 212 4,200 -1,200 Descending FlightAware ADS-B (SBGL / GIG)
05:19PM -22.6838 -43.4577 125° Southeast 187 215 4,000  Descending FlightAware ADS-B (SBPI / QPE)
05:20PM -22.6798 -43.4637 126° Southeast 189 217 4,200 -900 Climbing FlightAware ADS-B (SBRJ / SDU)
05:20PM -22.6909 -43.4471 125° Southeast 186 214 3,800 -1,200 Descending FlightAware ADS-B (SBPI / QPE)
05:20PM -22.6906 -43.4475 126° Southeast 186 214 3,800 -1,140 Level FlightAware ADS-B (SBRJ / SDU)
05:20PM -22.6987 -43.4352 125° Southeast 183 211 3,500 -1,500 Descending FlightAware ADS-B (SBPI / QPE)
05:20PM -22.7058 -43.4247 125° Southeast 179 206 3,300  Descending FlightAware ADS-B (SBPI / QPE)
05:20PM -22.7009 -43.4321 126° Southeast 183 211 3,500 -1,200 Climbing FlightAware ADS-B (SBRJ / SDU)
05:20PM -22.7132 -43.4134 125° Southeast 176 203 3,000 -1,380 Descending FlightAware ADS-B (SBPI / QPE)
05:21PM -22.7109 -43.4168 125° Southeast 178 205 3,100 -840 Climbing FlightAware ADS-B (SBRJ / SDU)
05:21PM -22.7199 -43.4033 125° Southeast 172 198 2,800 -720 Descending FlightAware ADS-B (SBPI / QPE)
05:21PM -22.7183 -43.4057 126° Southeast 173 199 2,900 -840 Climbing FlightAware ADS-B (SBRJ / SDU)
05:21PM -22.7270 -43.3926 125° Southeast 170 196 2,600 -1,380 Descending FlightAware ADS-B (SBPI / QPE)
05:21PM -22.7341 -43.3821 126° Southeast 168 193 2,400 -360 Descending FlightAware ADS-B (SBPI / QPE)
05:21PM -22.7301 -43.3880 125° Southeast 169 194 2,500 -1,200 Climbing FlightAware ADS-B (SBJR / RIO)
05:21PM -22.7406 -43.3723 125° Southeast 164 189 2,100 -1,140 Descending FlightAware ADS-B (SBPI / QPE)
05:22PM -22.7383 -43.3759 126° Southeast 165 190 2,200 -840 Climbing FlightAware ADS-B (SBRJ / SDU)
05:22PM -22.7472 -43.3623 125° Southeast 159 183 1,900 -600 Descending FlightAware ADS-B (SBPI / QPE)
05:22PM -22.7463 -43.3636 126° Southeast 165 190 2,000 -420 Climbing FlightAware ADS-B (SBRJ / SDU)
05:22PM -22.7535 -43.3529 125° Southeast 147 169 1,800 -960 Descending FlightAware ADS-B (SBPI / QPE)
05:22PM -22.7528 -43.3539 126° Southeast 148 170 1,700 -840 Descending FlightAware ADS-B (SBRJ / SDU)
05:22PM -22.7591 -43.3443 125° Southeast 140 161 1,600 -1,140 Descending FlightAware ADS-B (SBPI / QPE)
05:22PM -22.7648 -43.3357 125° Southeast 134 154 1,400 -840 Descending FlightAware ADS-B (SBPI / QPE)
05:23PM -22.7703 -43.3275 125° Southeast 133 153 1,200 -720 Descending FlightAware ADS-B (SBPI / QPE)
05:23PM -22.7712 -43.3261 123° Southeast 128 147 1,200 -420 Level FlightAware ADS-B (SBGL / GIG)
05:23PM -22.7756 -43.3194 125° Southeast 132 152 1,100 -600 Descending FlightAware ADS-B (SBPI / QPE)
05:23PM -22.7785 -43.3149 123° Southeast 128 147 1,000 -840 Descending FlightAware ADS-B (SBGL / GIG)
05:23PM -22.7804 -43.3122 125° Southeast 132 152 900 -840 Descending FlightAware ADS-B (SBPI / QPE)
05:23PM -22.7860 -43.3037 125° Southeast 131 151 700 -780 Descending FlightAware ADS-B (SBPI / QPE)
05:24PM -22.7904 -43.2971 125° Southeast 131 151 500 -720 Descending FlightAware ADS-B (SBPI / QPE)
05:24PM -22.7926 -43.2937 123° Southeast 128 147 500 -480 Level FlightAware ADS-B (SBGL / GIG)
05:24PM -22.7963 -43.2882 125° Southeast 131 151 400 -240 Descending FlightAware ADS-B (SBPI / QPE)
05:24PM -22.7977 -43.2860 126° Southeast 132 152 400 -600 Level FlightAware ADS-B (SBRJ / SDU)
05:24PM -22.8010 -43.2809 124° Southeast 131 151 200 -900 Descending FlightAware ADS-B (SBPI / QPE)
05:25PM -22.8040 -43.2764 125° Southeast 131 151 100 -420 Descending FlightAware ADS-B (SBRJ / SDU)